This is the latest recevied weather packets stored in our database for station/object N7IGG. If no packets are shown the sender has not sent any weather packets the latest 10 day(s).
| Time | Temp. | Humidity | Pressure | Rain* | Wind** | Luminosity | Snow |
|---|---|---|---|---|---|---|---|
| 1777252123 | 15.56° C | 55% | 1010.9 hPa | 0 mm | - | 60 W/m² | - |
| 1777251820 | 16.11° C | 54% | 1010.9 hPa | 0 mm | - | 64 W/m² | - |
| 1777251516 | 15.56° C | 55% | 1010.9 hPa | 0 mm | - | 72 W/m² | - |
| 1777251213 | 15.56° C | 58% | 1010.8 hPa | 0 mm | - | 93 W/m² | - |
| 1777250909 | 19.44° C | 44% | 1010.6 hPa | 0 mm | - | 106 W/m² | - |
| 1777250606 | 19.44° C | 38% | 1010.6 hPa | 0 mm | - | 99 W/m² | - |
| 1777250301 | 18.89° C | 36% | 1010.5 hPa | 0 mm | - | 92 W/m² | - |
| 1777249998 | 18.89° C | 39% | 1010.5 hPa | 0 mm | - | 103 W/m² | - |
| 1777249694 | 18.89° C | 37% | 1010.4 hPa | 0 mm | - | 113 W/m² | - |
| 1777249390 | 18.89° C | 39% | 1010.5 hPa | 0 mm | - | 253 W/m² | - |
| 1777249087 | 19.44° C | 38% | 1010.3 hPa | 0 mm | - | 161 W/m² | - |
| 1777248783 | 19.44° C | 41% | 1010.4 hPa | 0 mm | - | 400 W/m² | - |
| 1777248480 | 18.33° C | 44% | 1010.5 hPa | 0 mm | - | 160 W/m² | - |
| 1777248176 | 18.89° C | 43% | 1010.3 hPa | 0 mm | - | 141 W/m² | - |
| 1777247876 | 18.33° C | 43% | 1010.4 hPa | 0 mm | - | 139 W/m² | - |
| 1777247572 | 17.78° C | 44% | 1010.4 hPa | 0 mm | - | 120 W/m² | - |
| 1777247270 | 17.78° C | 42% | 1010.4 hPa | 0 mm | - | 106 W/m² | - |
| 1777246968 | 18.33° C | 43% | 1012.1 hPa | - | - | 133 W/m² | - |
| 1777246664 | 20° C | 36% | 1010.4 hPa | 0 mm | - | 506 W/m² | - |
| 1777246360 | 19.44° C | 37% | - | 0 mm | - | - | - |
| 1777246057 | 18.89° C | 39% | 1010.5 hPa | 0 mm | - | 139 W/m² | - |
| 1777245756 | 18.89° C | 40% | 1010.5 hPa | 0 mm | - | 130 W/m² | - |
| 1777245452 | 18.33° C | 44% | 1010.6 hPa | 0 mm | - | 135 W/m² | - |
| 1777245295 | 18.33° C | 43% | - | - | - | - | - |
| 1777245118 | 18.33° C | 43% | - | - | - | - | - |
* Rain latest hour (hover to see other rain measurements)
** Current wind speed in m/s (hover to see current wind gust speed)